This demonstration page uses our WeatherBlox Daily Observations layout. Learn more.

39.29038, -76.61219

Hourly Observations for July 11, 2015

Temp ( °F °C ) Dew Point ( °F °C ) Humidity (%) Winds ( mph kmh ) Pressure ( in mb ) Visibility ( mi km ) Precip ( " mm )
12:54 am 00:54 undefined 81 27 63 17 54 54 undefined N/A 30.03 1017 N/A 0 0
1:54 am 01:54 undefined 79 26 63 17 58 58 undefined N/A 30.03 1017 N/A 0 0
2:54 am 02:54 undefined 79 26 63 17 58 58 undefined N/A 30.03 1017 N/A 0 0
3:54 am 03:54 undefined 77 25 64 18 65 65 undefined N/A 30.03 1017 N/A 0 0
4:54 am 04:54 Cloudy 75 24 64 18 69 69 undefined N/A 30.03 1017 N/A 0 0
5:54 am 05:54 Mostly Cloudy 75 24 64 18 69 69 undefined N/A 30.06 1018 1.25 2.01168 0 0
6:54 am 06:54 Sunny 75 24 63 17 65 65 undefined N/A 30.06 1018 N/A 0 0
7:54 am 07:54 Cloudy 75 24 61 16 61 61 undefined N/A 30.09 1019 N/A 0 0
8:54 am 08:54 Mostly Cloudy 75 24 61 16 61 61 undefined N/A 30.09 1019 N/A 0 0
9:54 am 09:54 Sunny 79 26 59 15 51 51 undefined N/A 30.09 1019 N/A 0 0
10:54 am 10:54 Sunny 81 27 57 14 45 45 undefined N/A 30.09 1019 N/A 0 0
11:54 am 11:54 Mostly Sunny 82 28 57 14 42 42 undefined N/A 30.09 1019 N/A 0 0
12:54 pm 12:54 Mostly Sunny 84 29 57 14 40 40 undefined N/A 30.09 1019 N/A 0 0
1:54 pm 13:54 Mostly Cloudy 84 29 61 16 45 45 undefined N/A 30.09 1019 N/A 0 0
2:54 pm 14:54 Mostly Sunny 82 28 61 16 48 48 undefined N/A 30.06 1018 N/A 0 0
3:54 pm 15:54 Mostly Cloudy 84 29 59 15 43 43 undefined N/A 30.06 1018 N/A 0 0
4:54 pm 16:54 undefined 86 30 54 12 33 33 undefined N/A 30.06 1018 N/A 0 0
5:54 pm 17:54 Mostly Cloudy 84 29 52 11 33 33 undefined N/A 30.06 1018 N/A 0 0
6:54 pm 18:54 undefined 84 29 55 13 37 37 undefined N/A 30.06 1018 N/A 0 0
7:54 pm 19:54 Mostly Sunny 82 28 55 13 40 40 undefined N/A 30.06 1018 N/A 0 0
8:54 pm 20:54 undefined 82 28 55 13 40 40 undefined N/A 30.09 1019 N/A 0 0
9:54 pm 21:54 undefined 81 27 55 13 42 42 undefined N/A 30.09 1019 N/A 0 0
10:54 pm 22:54 Partly Cloudy 79 26 55 13 45 45 undefined N/A 30.09 1019 N/A 0 0
11:54 pm 23:54 Cloudy 79 26 57 14 48 48 undefined N/A 30.06 1018 N/A 0 0

Powered by AerisWeather